< < Back
Terminal Aerodrome Forecast


Current Version              Previous Versions:   1  2  3  4  5  6  7  8  9  

Terminal Aerodrome Forecast

158
FTUS42 KFFC 210100 AAA
TAFMCN
TAF AMD
KMCN 210154Z 2102/2124 24003KT P6SM FEW250
     FM210600 27003KT P6SM FEW250
     FM211500 30005KT P6SM FEW250
     FM211800 32010G16KT P6SM FEW250=

Latest METAR

667
SAUS80 KWBC 210500 RRB
MTRMCN
METAR KMCN 210453Z AUTO 00000KT 4SM BR CLR 11/11 A3001 RMK AO2 SLP158
T01060106 402500050 TSNO


USA.gov is the U.S. government's official web portal to all federal, state and local government web resources and services.